User: anonymous   Login
Location: Unspecified
(43.4000°N, 0.0000°E)
Time: 03:37:34
(UTC+00:00)
Language:

Oscar 11 - Orbit

View from above orbital plane
View from above orbital plane
View from above satellite
View from above satellite

Ground track
Ground track

The orbit data is extracted from the following two-line orbital elements,

1 14781U 84021B   19285.67733817  .00000058  00000-0  13220-4 0  9998
2 14781  97.6053 304.8727 0007188 304.7442  55.3096 14.83111670915951
Epoch (UTC): 12 October 2019 16:15:22
Eccentricity: 0.0007188
inclination: 97.6053°
perigee height: 614 km
apogee height: 624 km
right ascension of ascending node: 304.8727°
argument of perigee: 304.7442°
revolutions per day: 14.83111670
mean anomaly at epoch: 55.3096°
orbit number at epoch: 91595

The dashed part of the orbit path shows where the satellite is in the earth's shadow,  

DLR